This demonstration page uses our WeatherBlox Daily Observations layout. Learn more.

Left ArrowRight Arrow

39.08367, -84.50855

Hourly Observations for November 30, 2015

Temp ( °F °C ) Dew Point ( °F °C ) Humidity (%) Winds ( mph kmh ) Pressure ( in mb ) Visibility ( mi km ) Precip ( " mm )
12:53 am 00:53 Clear 40 4.4 33 0.6 77 77 ENE 8 13 30.19 1022 10 16 0.00 0.00
1:53 am 01:53 Clear 40 4.4 33 0.6 77 77 NE 7 11 30.19 1022 10 16 0.00 0.00
2:53 am 02:53 Clear 40 4.4 33 0.6 77 77 NE 8 13 30.19 1022 10 16 0.00 0.00
3:53 am 03:53 Clear 40 4.4 33 0.6 77 77 NE 6 9 30.19 1022 10 16 0.00 0.00
4:53 am 04:53 Clear 39 3.9 33 0.6 79 79 NE 7 11 30.16 1021 10 16 0.00 0.00
5:53 am 05:53 Clear 39 3.9 33 0.6 79 79 NE 8 13 30.14 1021 10 16 0.00 0.00
6:53 am 06:53 Mostly Cloudy 38 3.3 33 0.6 83 83 NE 3 6 30.14 1021 10 16 0.00 0.00
7:53 am 07:53 Mostly Sunny 38 3.3 34 1.1 86 86 NNE 3 6 30.14 1021 10 16 0.00 0.00
8:53 am 08:53 Mostly Cloudy 40 4.4 35 1.7 83 83 NNE 8 13 30.14 1021 10 16 0.00 0.00
9:32 am 09:32 Mostly Cloudy 41 5 36 2 81 81 NE 7 11 30.15 1021 10 16 0.00 0.00
9:53 am 09:53 Cloudy 41 5 36 2.2 82 82 NE 8 13 30.15 1021 10 16 0.00 0.00
10:53 am 10:53 Cloudy 43 6.1 37 2.8 80 80 NE 6 9 30.15 1021 10 16 0.00 0.00
11:53 am 11:53 Cloudy 43 6.1 39 3.9 86 86 NE 7 11 30.13 1020 10 16 0.00 0.03
12:29 pm 12:29 Cloudy 43 6.1 40 4.4 89 89 NNE 7 11 30.09 1019 10 16 0.00 0.03
12:53 pm 12:53 Cloudy 44 6.7 40 4.4 85 85 ENE 7 11 30.09 1019 10 16 0.00 0.03
1:53 pm 13:53 Cloudy 45 7.2 41 5 86 86 NE 7 11 30.07 1018 10 16 0.00 0.00
2:53 pm 14:53 Cloudy 46 7.8 42 5.6 86 86 ENE 8 13 30.05 1018 10 16 0.00 0.00
3:53 pm 15:53 Cloudy 46 7.8 43 6.1 89 89 E 7 11 30.05 1018 10 16 0.00 0.00
4:20 pm 16:20 Cloudy with Mist and Fog 46 8 45 7 93 93 ENE 5 7 30.03 1017 3 4 0.00 0.00
4:53 pm 16:53 Cloudy with Mist and Fog 45 7.2 44 6.7 97 97 NE 6 9 30.05 1018 2 3 0.00 0.00
5:53 pm 17:53 Cloudy with Mist and Fog 45 7.2 45 7.2 100 100 NE 3 6 30.05 1018 2 3 0.00 0.00
5:55 pm 17:55 Cloudy 45 7.2 45 7.2 100 100 NE 3 6 30.03 1017 7 11 0.00 0.00
6:49 pm 18:49 Cloudy with Mist and Fog 45 7 45 7 100 100 NE 3 6 30.06 1018 2 3 0.00 0.00
6:53 pm 18:53 Cloudy with Mist and Fog 45 7.2 45 7.2 100 100 NE 3 6 30.06 1018 3 4 0.00 0.00
7:53 pm 19:53 Cloudy with Mist and Fog 45 7.2 45 7.2 100 100 NNE 6 9 30.04 1017 2 3 0.00 0.00
8:53 pm 20:53 Cloudy with Mist and Fog 45 7.2 45 7.2 100 100 N 3 6 30.04 1017 2 3 0.00 0.00
9:53 pm 21:53 Cloudy with Mist and Fog 45 7.2 45 7.2 100 100 Calm 30.02 1017 2 3 0.00 0.00
10:53 pm 22:53 Cloudy with Mist and Fog 46 7.8 46 7.8 100 100 NE 3 6 30.01 1016 4 6 0.00 0.00
11:53 pm 23:53 Cloudy with Light Rain 47 8.3 46 7.8 97 97 NNW 5 7 29.97 1015 6 10 0.05 1.27

Powered by AerisWeather